Content
SEND FEEDBACK

Daily
Averages
Monthly
Summary
United States of America

MANISTIQUE, MICHIGAN


Home > North America > United States > Michigan
Elevation: 610 feet     Latitude: 45 58N     Longitude: 086 15W

WEATHER
 
SELECT A DAY
Number of Records: 410,145;   Date Range: 5/11/98 - 8/30/14
 
SHARE

PRINT THIS DATA

[ ← Previous Day ]
WEATHER ALMANAC - JANUARY 23, 2013
[ Next Day → ]
[ °C ]   °F
Weather ElementAverageHighLow
Temperature3.6 °F12.2 °F (8:34 pm)-4 °F (5:34 am)
Dewpoint-8 °F6.8 °F (8:15 pm)-14.8 °F (12:34 am)
Humidity59.7 %85 % (8:15 pm)44 % (1:54 pm)
Barometer30.10 in30.27 in (11:55 pm)30.00 in (1:54 pm)
Wind Speed9 mph18.4 mph (8:34 pm)
Wind Gust27.6 mph (8:34 pm)
Weather ElementAverage
Visibility8.5 mi
Wind DirectionWSW (249 °)

Weather ElementTotal
Precipitation---
Heating Degree Days60.9 (Base 65)
Averaged from 71 records on January 23, 2013
WEATHER CONDITIONS BREAKOUT
WIND DIRECTION BREAKOUT
WEATHER BY HOUR - JANUARY 23, 2013
[ °C ]   °F
Local TimeTemperatureDewpointHumidityBarometerVisibilityWind DirectionWind SpeedGust SpeedPrecipitationEventsConditions
12:34 AM-2.2 °F-14.8 °F55 %30.18 in10.0 miWest (260°)9.2 mphClear
12:55 AM-2.2 °F-14.8 °F55 %30.17 in10.0 miWest (260°)9.2 mphClear
1:14 AM-2.2 °F-14.8 °F55 %30.17 in10.0 miWest (260°)8.1 mphClear
1:35 AM-2.2 °F-14.8 °F55 %30.17 in10.0 miWest (270°)10.4 mph16.1 mphClear
1:55 AM-2.2 °F-14.8 °F55 %30.16 in10.0 miWest (270°)13.8 mph19.6 mphClear
2:14 AM-2.2 °F-14.8 °F55 %30.16 in10.0 miWest (270°)12.7 mph19.6 mphClear
2:35 AM-2.2 °F-14.8 °F55 %30.16 in10.0 miWest (260°)11.5 mph18.4 mphClear
2:55 AM-2.2 °F-14.8 °F55 %30.16 in10.0 miWest (260°)11.5 mph16.1 mphScattered Clouds
3:14 AM-2.2 °F-14.8 °F55 %30.15 in10.0 miWest (270°)10.4 mph18.4 mphClear
3:35 AM-2.2 °F-14.8 °F55 %30.15 in10.0 miWest (260°)9.2 mphScattered Clouds
3:54 AM-2.2 °F-14.8 °F55 %30.14 in10.0 miWest (270°)10.4 mph16.1 mphOvercast
4:15 AM-2.2 °F-14.8 °F55 %30.13 in10.0 miWest (270°)10.4 mph16.1 mphOvercast
4:34 AM-2.2 °F-14.8 °F55 %30.13 in10.0 miWest (270°)12.7 mphMostly Cloudy
4:55 AM-2.2 °F-14.8 °F55 %30.12 in10.0 miWest (270°)12.7 mph16.1 mphScattered Clouds
5:15 AM-2.2 °F-14.8 °F55 %30.12 in10.0 miWest (280°)13.8 mphClear
5:34 AM-4.0 °F-14.8 °F60 %30.12 in10.0 miWest (280°)12.7 mphClear
5:55 AM-4.0 °F-14.8 °F60 %30.12 in10.0 miWest (280°)11.5 mphClear
6:14 AM-4.0 °F-14.8 °F60 %30.11 in10.0 miWest (280°)9.2 mphMostly Cloudy
6:35 AM-4.0 °F-14.8 °F60 %30.11 in10.0 miWest (270°)9.2 mphOvercast
6:55 AM-4.0 °F-14.8 °F60 %30.10 in10.0 miWest (270°)6.9 mphMostly Cloudy
7:14 AM-4.0 °F-14.8 °F60 %30.09 in10.0 miWest (270°)8.1 mphScattered Clouds
7:35 AM-4.0 °F-14.8 °F60 %30.10 in10.0 miWNW (290°)8.1 mphScattered Clouds
7:54 AM-4.0 °F-14.8 °F60 %30.09 in10.0 miWest (270°)8.1 mphScattered Clouds
8:15 AM-4.0 °F-14.8 °F60 %30.09 in10.0 miWest (270°)10.4 mphScattered Clouds
8:35 AM-4.0 °F-13.0 °F65 %30.09 in10.0 miWest (280°)8.1 mphMostly Cloudy
8:55 AM-4.0 °F-13.0 °F65 %30.09 in10.0 miWest (280°)9.2 mphOvercast
9:14 AM-4.0 °F-13.0 °F65 %30.09 in10.0 miWest (270°)8.1 mphOvercast
9:35 AM-2.2 °F-13.0 °F60 %30.08 in10.0 miWest (280°)9.2 mphOvercast
9:54 AM-2.2 °F-13.0 °F60 %30.08 in10.0 miWest (280°)9.2 mphOvercast
10:15 AM-2.2 °F-11.2 °F66 %30.08 in10.0 miWest (280°)9.2 mphMostly Cloudy
10:35 AM-0.4 °F-11.2 °F60 %30.08 in10.0 miWNW (290°)10.4 mphMostly Cloudy
10:54 AM-0.4 °F-11.2 °F60 %30.08 in10.0 miWNW (290°)10.4 mphMostly Cloudy
11:15 AM-0.4 °F-11.2 °F60 %30.07 in10.0 miWest (280°)6.9 mphScattered Clouds
11:34 AM1.4 °F-11.2 °F56 %30.07 in10.0 miWNW (300°)5.8 mphMostly Cloudy
11:55 AM1.4 °F-9.4 °F61 %30.06 in10.0 miWNW (290°)3.5 mphOvercast
12:14 PM3.2 °F-9.4 °F56 %30.06 in10.0 miWest (280°)4.6 mphMostly Cloudy
12:35 PM5.0 °F-9.4 °F52 %30.04 in10.0 miWest (270°)4.6 mphScattered Clouds
12:55 PM6.8 °F-9.4 °F48 %30.03 in10.0 miCalmScattered Clouds
1:14 PM8.6 °F-7.6 °F48 %30.02 in10.0 miCalmScattered Clouds
1:35 PM8.6 °F-7.6 °F48 %30.01 in10.0 miSSW (210°)3.5 mphClear
1:54 PM8.6 °F-9.4 °F44 %30.00 in10.0 miWest (280°)5.8 mphClear
2:15 PM8.6 °F-9.4 °F44 %30.00 in10.0 miCalmScattered Clouds
2:35 PM8.6 °F-9.4 °F44 %30.00 in10.0 miWSW (240°)4.6 mphScattered Clouds
2:54 PM8.6 °F-9.4 °F44 %30.00 in10.0 miWSW (250°)5.8 mphScattered Clouds
3:15 PM8.6 °F-9.4 °F44 %30.00 in10.0 miWest (260°)4.6 mphMostly Cloudy
3:34 PM8.6 °F-9.4 °F44 %30.01 in10.0 miWest (270°)5.8 mphOvercast
3:55 PM8.6 °F-7.6 °F48 %30.01 in10.0 miWest (270°)4.6 mphOvercast
4:15 PM8.6 °F-7.6 °F48 %30.01 in10.0 miWest (280°)6.9 mphOvercast
4:34 PM8.6 °F-7.6 °F48 %30.02 in10.0 miWest (270°)5.8 mphOvercast
4:55 PM10.4 °F-7.6 °F44 %30.02 in10.0 miWest (280°)6.9 mphOvercast
5:15 PM10.4 °F-5.8 °F48 %30.03 in10.0 miWest (280°)8.1 mphOvercast
5:35 PM10.4 °F-5.8 °F48 %30.04 in10.0 miWest (280°)6.9 mphOvercast
5:54 PM10.4 °F-5.8 °F48 %30.04 in10.0 miWest (270°)5.8 mphOvercast
6:15 PM10.4 °F-4.0 °F52 %30.05 in10.0 miWest (260°)4.6 mphOvercast
6:35 PM10.4 °F-2.2 °F57 %30.05 in10.0 miWest (270°)6.9 mphOvercast
6:54 PM10.4 °F-0.4 °F62 %30.05 in10.0 miWest (270°)9.2 mphMostly Cloudy
7:15 PM10.4 °F-0.4 °F62 %30.05 in10.0 miWest (280°)13.8 mph18.4 mphScattered Clouds
7:35 PM10.4 °F3.2 °F73 %30.05 in1.5 miWest (280°)17.3 mph20.7 mphSnowLight Snow
7:54 PM10.4 °F5.0 °F79 %30.06 in1.0 miWest (280°)17.3 mphSnowLight Snow
8:15 PM10.4 °F6.8 °F85 %30.07 in1.5 miNW (310°)16.1 mph25.3 mphSnowLight Snow
8:34 PM12.2 °F6.8 °F79 %30.09 in2.0 miNNW (340°)18.4 mph27.6 mphSnowLight Snow
8:55 PM12.2 °F3.2 °F67 %30.12 in3.0 miNorth (350°)16.1 mph25.3 mphSnowLight Snow
9:15 PM10.4 °F3.2 °F73 %30.15 in4.0 miNorth (360°)16.1 mph24.2 mphSnowLight Snow
9:34 PM10.4 °F5.0 °F79 %30.17 in2.0 miNorth (10°)13.8 mph25.3 mphSnowLight Snow
9:55 PM10.4 °F5.0 °F79 %30.19 in3.0 miNorth (10°)13.8 mph18.4 mphSnowLight Snow
10:14 PM10.4 °F5.0 °F79 %30.20 in2.5 miNorth (10°)12.7 mphSnowLight Snow
10:34 PM10.4 °F6.8 °F85 %30.22 in1.2 miNorth (10°)11.5 mphSnowLight Snow
10:54 PM10.4 °F6.8 °F85 %30.23 in1.2 miNorth (350°)6.9 mphSnowLight Snow
11:15 PM10.4 °F6.8 °F85 %30.24 in1.0 miNorth (350°)8.1 mphSnowSnow
11:34 PM10.4 °F6.8 °F85 %30.25 in3.0 miNorth (10°)6.9 mphSnowLight Snow
11:55 PM10.4 °F5.0 °F79 %30.27 in10.0 miNNW (340°)6.9 mphSnowLight Snow
Hourly data recorded from KISQ, located miles away from Manistique, Michigan







STORIES FROM OUR PARTNERS